Regional Weather Roundup
Issued by NWS

Home | Current Version | Previous Version | Text Only | Print | Product List | Glossary On
Versions: 1 2 3 4 5 6 7 8 9 10 11 12 13 14 15 16 17 18 19 20 21 22 23 24 25 26 27 28 29 30 31 32 33 34 35 36 37 38 39 40 41 42 43 44 45 46 47 48 49 50
000
ASUS43 KDTX 200010
RWRMI
MICHIGAN HOURLY REGIONAL WEATHER ROUNDUP
NATIONAL WEATHER SERVICE DETROIT/PONTIAC MI
700 PM EST MON FEB 19 2018

NOTE: "FAIR" INDICATES FEW OR NO CLOUDS BELOW 12,000 FEET WITH NO
SIGNIFICANT WEATHER AND/OR OBSTRUCTION TO VISIBILITY.

MIZ047>049-052>055-059>063-066>070-074>076-081>083-200100-
SOUTHEAST LOWER MICHIGAN

CITY           SKY/WX    TMP DP  RH WIND       PRES   REMARKS
ADRIAN         CLOUDY    51  51 100 SW10      29.95R
6HR MIN TEMP:  39; 6HR MAX TEMP:  52; 6HR PCP:  0.32;

ALMA           LGT RAIN  38  38 100 NE3       29.91S
6HR MIN TEMP:  37; 6HR MAX TEMP:  39;

ANN ARBOR      CLOUDY    51  51 100 S10       29.93R
BAD AXE        LGT SNOW  36  36  99 N3        29.96R
6HR MIN TEMP:  36; 6HR MAX TEMP:  38;

CARO           LGT RAIN  37  37 100 CALM      29.92R
DETROIT CITY   LGT RAIN  55  53  93 SW13      29.94R FOG
6HR MIN TEMP:  41; 6HR MAX TEMP:  55; 6HR PCP:  0.35;

DETROIT        RAIN      55  54  96 SW18      29.95R FOG
6HR MIN TEMP:  41; 6HR MAX TEMP:  55; 6HR PCP:  0.49;

FLINT          CLOUDY    46  46 100 S6        29.89R FOG
6HR MIN TEMP:  38; 6HR MAX TEMP:  46; 6HR PCP:  0.27;

GROSSE ILE     LGT RAIN  48  48  99 SW10      29.95R
6HR MIN TEMP:  38; 6HR MAX TEMP:  48; 6HR PCP:  0.28;

HILLSDALE      DRIZZLE   55  52  88 SW12G20   29.93R
HOWELL         DRIZZLE   53  52  98 S9        29.90R
6HR MIN TEMP:  39; 6HR MAX TEMP:  53; 6HR PCP:  0.09;


CITY           SKY/WX    TMP DP  RH WIND       PRES   REMARKS
JACKSON        LGT RAIN  56  55  97 S18G24    29.92R FOG
6HR MIN TEMP:  41; 6HR MAX TEMP:  56; 6HR PCP:  0.22;

LAMBERTVILLE   MOCLDY    59  56  91 SW10      29.95S
6HR MIN TEMP:  48; 6HR MAX TEMP:  59;

LANSING        CLOUDY    52  52 100 SW14      29.88R FOG
6HR MIN TEMP:  40; 6HR MAX TEMP:  52; 6HR PCP:  0.27;

LAPEER         RAIN      38  38 100 CALM      29.91R VSB 1
6HR MIN TEMP:  37; 6HR MAX TEMP:  40; 6HR PCP:  0.17;

MASON          CLOUDY    54  51  89 SW6       29.90R FOG
6HR MIN TEMP:  40; 6HR MAX TEMP:  55;

MONROE         LGT RAIN  58  55  89 S10G20    29.94S
6HR MIN TEMP:  44; 6HR MAX TEMP:  58; 6HR PCP:  0.32;

MT. CLEMENS    LGT RAIN  37  37 100 CALM      29.91S
6HR MIN TEMP:  36; 6HR MAX TEMP:  40; 6HR PCP:  0.26;

PONTIAC        DRIZZLE   50  50 100 S8        29.91R FOG
6HR MIN TEMP:  38; 6HR MAX TEMP:  50; 6HR PCP:  0.19;

PORT HOPE        N/A     34  34 100 CALM      29.97R
6HR MIN TEMP:  33; 6HR MAX TEMP:  41; 6HR PCP:  0.24;

PORT HURON     RAIN      43  41  93 CALM      29.94R VSB 1/2
TRI CITIES     MIX PCPN  37  36  96 NE8       29.93R FOG     WCI  31
6HR MIN TEMP:  37; 6HR MAX TEMP:  42; 6HR PCP:  0.07;

MIDLAND        LGT RAIN  38  38 100 NE7       29.92F WCI  33
6HR MIN TEMP:  38; 6HR MAX TEMP:  41; 6HR PCP:  0.19;

TROY           CLOUDY    53  53  97 SW9       29.94R FOG
SAGINAW HB     LGT RAIN  36  36 100 N9        29.94R WCI  29
$$
MIZ043>046-050>051-056>058-064>065-071>073-077>080-200100-
SOUTHWEST LOWER MICHIGAN

CITY           SKY/WX    TMP DP  RH WIND       PRES   REMARKS
BATTLE CREEK   CLOUDY    53  52  96 SW17      29.90R FOG
6HR MIN TEMP:  41; 6HR MAX TEMP:  53; 6HR PCP:  0.18;

BENTON HARBOR  CLOUDY    55  52  89 S14G20    29.85S
6HR MIN TEMP:  44; 6HR MAX TEMP:  57; 6HR PCP:  0.08;

BIG RAPIDS     CLOUDY    37  35  92 E6        29.87R WCI  32
6HR MIN TEMP:  36; 6HR MAX TEMP:  40; 6HR PCP:  0.19;

COLDWATER      HVY RAIN  55  55 100 SW13      29.93R
6HR MIN TEMP:  45; 6HR MAX TEMP:  55;

FREMONT        DRIZZLE   38  36  92 E8        29.84S WCI  32
6HR MIN TEMP:  38; 6HR MAX TEMP:  39;

HOLLAND        CLOUDY    56  53  90 SW20G31   29.84R
6HR MIN TEMP:  42; 6HR MAX TEMP:  51; 6HR PCP:  0.23;

GRAND RAPIDS   LGT RAIN  41  39  93 NE8       29.88R FOG
6HR MIN TEMP:  41; 6HR MAX TEMP:  42; 6HR PCP:  0.28;

IONIA          LGT RAIN  38  38 100 NW6       29.89R VSB 1/2 WCI  34
6HR MIN TEMP:  38; 6HR MAX TEMP:  40; 6HR PCP:  0.17;

KALAMAZOO      LGT RAIN  52  50  93 S14       29.90R FOG
6HR MIN TEMP:  42; 6HR MAX TEMP:  52; 6HR PCP:  0.15;

LUDINGTON      CLOUDY    38  38 100 E6        29.85S FOG     WCI  34
6HR MIN TEMP:  38; 6HR MAX TEMP:  43; 6HR PCP:  0.10;

MARSHALL       CLOUDY    55  54  97 SW14G25   29.91R
6HR MIN TEMP:  41; 6HR MAX TEMP:  55; 6HR PCP:  0.19;

MOUNT PLEASANT RAIN      39  37  95 E7        29.90R WCI  34
6HR MIN TEMP:  38; 6HR MAX TEMP:  40; 6HR PCP:  0.23;

MUSKEGON       LGT RAIN  40  38  93 SE9       29.84S VSB 1   WCI  34
6HR MIN TEMP:  40; 6HR MAX TEMP:  41; 6HR PCP:  0.21;

SOUTH HAVEN    CLOUDY    57  54  90 SW14G20   29.85R
$$
MIZ016>042-200100-
NORTHERN LOWER MICHIGAN

CITY           SKY/WX    TMP DP  RH WIND       PRES   REMARKS
ALPENA         CLOUDY    33  33 100 E7        30.00R FOG     WCI  27
6HR MIN TEMP:  33; 6HR MAX TEMP:  41; 6HR PCP:  0.06;

BEAVER ISLAND  LGT SNOW  33  32  94 E7        29.96S WCI  27
6HR MIN TEMP:  33; 6HR MAX TEMP:  37;

BELLAIRE       FLURRIES  37  35  93 E7        29.93R WCI  32
6HR MIN TEMP:  37; 6HR MAX TEMP:  42;

CADILLAC       CLOUDY    35  34  98 E9        29.89S FOG     WCI  27
CHARLEVOIX     CLOUDY    35  32  87 E13       29.96S WCI  26
6HR MIN TEMP:  34; 6HR MAX TEMP:  39;

FRANKFORT      LGT RAIN  37  37  99 NE7       29.88F WCI  31
GAYLORD        LGT RAIN  33  33 100 NE8       29.93R FOG     WCI  26
6HR MIN TEMP:  33; 6HR MAX TEMP:  38; 6HR PCP:  0.03;

GRAYLING       CLOUDY    34  34  98 E9        29.91F FOG     WCI  27
6HR MIN TEMP:  34; 6HR MAX TEMP:  39; 6HR PCP:  0.09;

HARBOR SPRINGS CLOUDY    33  32  96 E16       29.96S WCI  22
HOUGHTON LAKE  CLOUDY    35  34  96 NE10      29.91F WCI  27
6HR MIN TEMP:  35; 6HR MAX TEMP:  40; 6HR PCP:  0.18;

MANISTEE       CLOUDY    37  36  96 E9        29.86F FOG     WCI  30
OSCODA         LGT SNOW  33  32  96 NE9       29.97R WCI  25
6HR MIN TEMP:  33; 6HR MAX TEMP:  41; 6HR PCP:  0.10;

PELLSTON       LGT SNOW  34  31  88 E10       29.98R FOG     WCI  26
6HR MIN TEMP:  34; 6HR MAX TEMP:  41; 6HR PCP: TRACE;

ROGERS CITY    CLOUDY    33  32  97 E7        30.01R FOG     WCI  26
TRAVERSE CITY  RAIN      35  34  96 E5        29.89F FOG     WCI  31
6HR MIN TEMP:  35; 6HR MAX TEMP:  41; 6HR PCP:  0.05;

$$
MIZ007>008-015-200100-
EASTERN UPPER MICHIGAN

CITY           SKY/WX    TMP DP  RH WIND       PRES   REMARKS
KINROSS        MIX PCPN  29  26  89 NE14      30.01R WCI  18
6HR MIN TEMP:  29; 6HR MAX TEMP:  36; 6HR PCP: TRACE;

MACKINAC ISLAN CLOUDY    33  31  94 E8        29.99R FOG     WCI  25
6HR MIN TEMP:  32; 6HR MAX TEMP:  35;

NEWBERRY       LGT SNOW  26  25  98 NE9       29.99R WCI  16
6HR MIN TEMP:  26; 6HR MAX TEMP:  33;

S. S. MARIE    FLURRIES  27  20  75 NE13      30.03R WCI  16
6HR MIN TEMP:  27; 6HR MAX TEMP:  39; 6HR PCP: TRACE;

MUNISING         N/A     25  24  96 NE16      30.02S WCI  12
6HR MIN TEMP:  24; 6HR MAX TEMP:  27; 6HR PCP:  0.02;

$$
MIZ004>006-011>014-085-200100-
CENTRAL UPPER MICHIGAN

CITY           SKY/WX    TMP DP  RH WIND       PRES   REMARKS
MANISTIQUE     LGT SNOW  26  25  94 N14       29.97S WCI  15
6HR MIN TEMP:  26; 6HR MAX TEMP:  31;

ESCANABA       LGT SNOW  24  21  88 N8        29.97F FOG     WCI  15
6HR MIN TEMP:  24; 6HR MAX TEMP:  28; 6HR PCP: TRACE;

MENOMINEE      FLURRIES  28  26  92 NE12      29.95R WCI  18
6HR MIN TEMP:  27; 6HR MAX TEMP:  31; 6HR PCP: TRACE;

SAWYER-GWINN   LGT SNOW  21  18  86 NE18G24   29.98F WCI   6
$$
MIZ001>003-009>011-084-200100-
WESTERN UPPER MICHIGAN

CITY           SKY/WX    TMP DP  RH WIND       PRES   REMARKS
IRON MOUNTAIN  CLOUDY    23  19  85 NE8       29.92F FOG     WCI  14
6HR MIN TEMP:  22; 6HR MAX TEMP:  23; 6HR PCP:  0.01;

HOUGHTON       FLURRIES  17  10  74 NE13G21   30.05S WCI   4
6HR MIN TEMP:  16; 6HR MAX TEMP:  18; 6HR PCP:  0.01;

COPPER HARBOR    N/A     19  15  84 E13G24    30.10S WCI   6
6HR MIN TEMP:  17; 6HR MAX TEMP:  19; 6HR PCP:  0.04;

IRONWOOD       LGT SNOW  15  12  88 E10       29.99F FOG     WCI   2
6HR MIN TEMP:  15; 6HR MAX TEMP:  17; 6HR PCP: TRACE;

$$

ABBREVIATIONS USED IN REMARKS
   TC - TEMPERATURE IN CELSIUS
  WCI - WIND CHILL INDEX
   HX - HEAT INDEX
  VSB - VISIBILITY





USA.gov is the U.S. government's official web portal to all federal, state and local government web resources and services.